TimeAEST,TemperatureF,Dew PointF,Humidity,Sea Level PressureIn,VisibilityMPH,Wind Direction,Wind SpeedMPH,Gust SpeedMPH,PrecipitationIn,Events,Conditions,WindDirDegrees,DateUTC
12:00 AM,77,75,90,29.80,,WSW,4.6,,,,,250,2013-02-24 14:00:00
12:00 AM,77.0,75.2,94,29.80,6.2,WSW,4.6,-,N/A,,Scattered Clouds,250,2013-02-24 14:00:00
12:30 AM,77.0,75.2,94,29.77,6.2,West,5.8,-,N/A,,Mostly Cloudy,280,2013-02-24 14:30:00
1:00 AM,77,75,91,29.78,,SSW,2.3,,,,,210,2013-02-24 15:00:00
1:00 AM,77.0,75.2,94,29.77,6.2,SSW,2.3,-,N/A,,Scattered Clouds,210,2013-02-24 15:00:00
1:30 AM,77.0,75.2,94,29.74,6.2,SSE,4.6,-,N/A,,Scattered Clouds,150,2013-02-24 15:30:00
2:00 AM,77.0,75.2,94,29.74,6.2,SE,5.8,-,N/A,,Scattered Clouds,140,2013-02-24 16:00:00
2:30 AM,75.2,73.4,94,29.74,6.2,South,2.3,-,N/A,,Partly Cloudy,170,2013-02-24 16:30:00
3:00 AM,76,74,91,29.75,,SSW,2.3,,,,,210,2013-02-24 17:00:00
3:00 AM,75.2,73.4,94,29.74,6.2,SSW,2.3,-,N/A,,Partly Cloudy,210,2013-02-24 17:00:00
3:30 AM,75.2,73.4,94,29.74,6.2,South,2.3,-,N/A,,Partly Cloudy,190,2013-02-24 17:30:00
4:00 AM,75,74,95,29.75,,Calm,Calm,,,,,,2013-02-24 18:00:00
4:00 AM,75.2,73.4,94,29.74,6.2,Calm,Calm,-,N/A,,Partly Cloudy,0,2013-02-24 18:00:00
4:30 AM,77.0,71.6,83,29.74,6.2,South,5.8,-,N/A,,Partly Cloudy,170,2013-02-24 18:30:00
5:00 AM,75.2,73.4,94,29.74,6.2,WSW,1.2,-,N/A,,Partly Cloudy,240,2013-02-24 19:00:00
5:30 AM,75.2,73.4,94,29.74,6.2,WSW,3.5,-,N/A,,Partly Cloudy,240,2013-02-24 19:30:00
6:00 AM,76,72,84,29.75,19,SSE,9.2,,,,Partly Cloudy,160,2013-02-24 20:00:00
6:00 AM,75.2,71.6,89,29.74,6.2,SSE,9.2,-,N/A,,Partly Cloudy,160,2013-02-24 20:00:00
6:30 AM,75.2,73.4,94,29.74,6.2,Calm,Calm,-,N/A,,Partly Cloudy,0,2013-02-24 20:30:00
7:00 AM,76,74,90,29.77,,Calm,Calm,,,,,,2013-02-24 21:00:00
7:00 AM,77.0,73.4,89,29.77,6.2,Calm,Calm,-,N/A,,Partly Cloudy,0,2013-02-24 21:00:00
7:30 AM,78.8,73.4,83,29.77,6.2,SE,8.1,-,N/A,,Partly Cloudy,140,2013-02-24 21:30:00
8:00 AM,80.6,73.4,79,29.77,6.2,SSE,9.2,-,N/A,,Partly Cloudy,150,2013-02-24 22:00:00
8:30 AM,82.4,71.6,70,29.77,6.2,NNW,2.3,-,N/A,,Partly Cloudy,340,2013-02-24 22:30:00
9:00 AM,84,74,64,29.80,19,SSE,8.1,,,,Partly Cloudy,160,2013-02-24 23:00:00
9:00 AM,84.2,73.4,70,29.80,6.2,SSE,8.1,-,N/A,,Partly Cloudy,160,2013-02-24 23:00:00
9:30 AM,84.2,73.4,70,29.80,6.2,South,8.1,-,N/A,,Partly Cloudy,170,2013-02-24 23:30:00
10:00 AM,86,72,55,29.81,,SE,6.9,,,,,130,2013-02-25 00:00:00
10:00 AM,86.0,71.6,62,29.80,6.2,SE,6.9,-,N/A,,Partly Cloudy,130,2013-02-25 00:00:00
10:30 AM,86.0,71.6,62,29.80,6.2,SE,2.3,-,N/A,,Partly Cloudy,140,2013-02-25 00:30:00
11:00 AM,86.0,73.4,66,29.77,6.2,NE,10.4,-,N/A,,Partly Cloudy,40,2013-02-25 01:00:00
11:30 AM,87.8,75.2,66,29.77,6.2,ENE,11.5,-,N/A,,Partly Cloudy,60,2013-02-25 01:30:00
12:00 PM,87,77,64,29.77,19,NE,11.5,,,,Partly Cloudy,50,2013-02-25 02:00:00
12:00 PM,87.8,77.0,70,29.77,6.2,NE,11.5,-,N/A,,Partly Cloudy,50,2013-02-25 02:00:00
12:30 PM,87.8,75.2,66,29.74,6.2,NE,10.4,-,N/A,,Partly Cloudy,50,2013-02-25 02:30:00
1:00 PM,87,75,60,29.75,,NE,11.5,,,,,50,2013-02-25 03:00:00
1:00 PM,87.8,75.2,66,29.74,6.2,NE,11.5,-,N/A,,Partly Cloudy,50,2013-02-25 03:00:00
1:30 PM,86.0,75.2,70,29.71,6.2,NE,10.4,-,N/A,,Partly Cloudy,40,2013-02-25 03:30:00
2:00 PM,87.8,75.2,66,29.71,6.2,NE,11.5,-,N/A,,Partly Cloudy,40,2013-02-25 04:00:00
2:30 PM,87.8,75.2,66,29.71,6.2,NE,10.4,-,N/A,,Partly Cloudy,50,2013-02-25 04:30:00
3:00 PM,87,76,62,29.70,19,NE,12.7,,,,Partly Cloudy,50,2013-02-25 05:00:00
3:00 PM,87.8,75.2,66,29.68,6.2,NE,12.7,-,N/A,,Partly Cloudy,50,2013-02-25 05:00:00
3:30 PM,87.8,75.2,66,29.68,-9999.0,NE,12.7,-,N/A,,Clear,50,2013-02-25 05:30:00
4:00 PM,88,74,54,29.70,,ENE,12.7,,,,,70,2013-02-25 06:00:00
4:00 PM,87.8,73.4,62,29.68,6.2,ENE,12.7,-,N/A,,Scattered Clouds,70,2013-02-25 06:00:00
4:30 PM,86.0,75.2,70,29.68,6.2,South,9.2,-,N/A,,Scattered Clouds,190,2013-02-25 06:30:00
5:00 PM,86.0,73.4,66,29.68,6.2,SE,9.2,-,N/A,,Scattered Clouds,130,2013-02-25 07:00:00
5:30 PM,84.2,73.4,70,29.68,6.2,SE,10.4,-,N/A,,Scattered Clouds,130,2013-02-25 07:30:00
6:00 PM,84,73,61,29.70,19,ESE,8.1,,,,Partly Cloudy,120,2013-02-25 08:00:00
6:00 PM,84.2,73.4,70,29.68,6.2,ESE,8.1,-,N/A,,Scattered Clouds,120,2013-02-25 08:00:00
6:30 PM,84.2,71.6,66,29.71,6.2,SSE,9.2,-,N/A,,Scattered Clouds,150,2013-02-25 08:30:00
7:00 PM,83,73,65,29.72,,SE,6.9,,,,,140,2013-02-25 09:00:00
7:00 PM,82.4,73.4,74,29.71,6.2,SE,6.9,-,N/A,,Scattered Clouds,140,2013-02-25 09:00:00
7:30 PM,82.4,73.4,74,29.71,6.2,SSE,4.6,-,N/A,,Scattered Clouds,160,2013-02-25 09:30:00
8:00 PM,80.6,73.4,79,29.71,6.2,South,3.5,-,N/A,,Scattered Clouds,180,2013-02-25 10:00:00
8:30 PM,80.6,73.4,79,29.74,6.2,Calm,Calm,-,N/A,,Scattered Clouds,0,2013-02-25 10:30:00
9:00 PM,80,74,76,29.75,19,Calm,Calm,,,,Partly Cloudy,,2013-02-25 11:00:00
9:00 PM,80.6,73.4,79,29.74,6.2,Calm,Calm,-,N/A,,Partly Cloudy,0,2013-02-25 11:00:00
9:30 PM,78.8,73.4,83,29.74,6.2,South,4.6,-,N/A,,Partly Cloudy,170,2013-02-25 11:30:00
10:00 PM,79,74,79,29.78,,SE,4.6,,,,,140,2013-02-25 12:00:00
10:00 PM,78.8,73.4,83,29.77,6.2,SE,4.6,-,N/A,,Partly Cloudy,140,2013-02-25 12:00:00
10:30 PM,78.8,73.4,83,29.77,6.2,South,2.3,-,N/A,,Partly Cloudy,180,2013-02-25 12:30:00
11:00 PM,78.8,73.4,83,29.77,6.2,Calm,Calm,-,N/A,,Partly Cloudy,0,2013-02-25 13:00:00
11:30 PM,78.8,73.4,83,29.77,6.2,Calm,Calm,-,N/A,,Partly Cloudy,0,2013-02-25 13:30:00